Home   Weather   Villavicencio   Past weeks

Flag for Colombia Past Weather in Villavicencio, Colombia — Yesterday and Last 2 Weeks

Now
46 °F

Passing clouds.


Feels Like: 44 °F
Forecast: 71 / 86 °F
Wind: 6 mph from North

Location: Bogota / Eldorado

Current Time: Jan 21, 2017 at 1:57:35 am

Latest Report: Jan 21, 2017 at 1:00 am


Visibility: N/A

Pressure: 30.34 "Hg

Humidity: 93%

Dew Point: 45 °F

Location of VillavicencioLocation

Past Weather in Villavicencio — Graph

°F

Villavicencio Temperature Yesterday

Maximum temperature yesterday: 68 °F (at 12:00 pm)
Minimum temperature yesterday: 48 °F (at 6:00 am)
Average temperature yesterday: 57 °F

High & Low Weather Summary for the Past Weeks

 TemperatureHumidityPressure
High68 °F (Jan 7, 3:00 pm)100% (Jan 9, 5:30 am)30.41 "Hg (Jan 9, 5:30 am)
Low46 °F (Jan 21, 1:00 am)46% (Jan 7, 3:00 pm)30.19 "Hg (Jan 11, 4:00 pm)
Average57 °F80%30.29 "Hg
* Reported Jan 6 1:00 am — Jan 21 1:00 am, Villavicencio, Weather by CustomWeather, © 2017

Note: Actual official high and low records may vary slightly from our data, if they occured in-between our weather recording intervals... More about our weather records

Advertising

Villavicencio Weather History for the Previous 24 Hours

Scroll right to see more
 ConditionsComfort  
Time TempWeatherWind HumidityBarometerVisibility
1:00 am
Sat, Jan 21
46 °FPassing clouds.6 mph93%30.34 "HgN/A
12:00 am48 °FPassing clouds.2 mph87%30.35 "HgN/A
11:00 pm
Fri, Jan 20
52 °FPassing clouds.5 mph82%30.35 "HgN/A
10:00 pm55 °FPassing clouds.5 mph77%30.35 "HgN/A
9:00 pm57 °FPassing clouds.7 mph77%30.34 "HgN/A
8:00 pm57 °FPassing clouds.6 mph82%30.32 "HgN/A
7:00 pm57 °FPassing clouds.7 mph77%30.30 "HgN/A
6:00 pm61 °FBroken clouds.9 mph68%30.27 "HgN/A
5:00 pm61 °FScattered clouds.10 mph68%30.26 "HgN/A
4:00 pm63 °FPartly sunny.8 mph64%30.24 "HgN/A
3:00 pm66 °FScattered clouds.14 mph64%30.25 "HgN/A
2:00 pm64 °FScattered clouds.14 mph64%30.26 "HgN/A
1:00 pm66 °FPartly sunny.10 mph56%30.29 "HgN/A
12:00 pm68 °FScattered clouds.7 mph53%30.31 "HgN/A
11:00 am64 °FScattered clouds.5 mph56%30.34 "HgN/A
10:00 am63 °FScattered clouds.5 mph64%30.37 "HgN/A
9:00 am59 °FBroken clouds.3 mph72%30.37 "Hg6 mi
8:30 am57 °FBroken clouds.3 mph77%30.37 "Hg5 mi
8:00 am54 °FFog.3 mph94%30.35 "Hg4 mi
7:26 am50 °FFog.2 mph94%30.33 "Hg4 mi
7:00 am50 °FFog.3 mph94%30.32 "Hg5 mi
6:00 am48 °FFog.2 mph94%30.30 "Hg5 mi
5:30 am50 °FFog.5 mph94%30.29 "Hg5 mi
5:00 am50 °FFog.6 mph94%30.28 "Hg5 mi
4:00 am50 °FFog.2 mph94%30.28 "HgN/A
3:00 am50 °FFog.5 mph94%30.29 "HgN/A
2:00 am52 °FPassing clouds.3 mph94%30.30 "HgN/A
1:00 am52 °FPassing clouds.5 mph94%30.32 "HgN/A
Weather by CustomWeather, © 2017

See weather overviewHow to use our weather pages